Location: Hiram
(41.3130°N, 81.1440°W)
Time: 09:52:59
(UTC-04:00)

Daily predictions for brighter satellites

Satellite Brightness Start Highest point End
(mag) Time Altitude Azimuth Time Altitude Azimuth Time Altitude Azimuth
Resurs 01 Rocket 1.8 20:38:08 10° SSE 20:42:29 57° ENE 20:46:52 10° N
Cosmos 2151 Rocket 3.5 20:38:59 10° S 20:43:20 70° E 20:47:44 10° NNE
Cosmos 2263 Rocket 2.4 20:39:55 10° NNW 20:45:33 58° ENE 20:51:08 10° SE
Envisat 3.4 20:42:07 10° SE 20:46:55 45° ENE 20:51:45 10° N
Abrixas 4.1 20:46:34 10° S 20:47:59 14° SE 20:49:11 11° ESE
Cosmos 1602 3.8 20:44:29 10° S 20:48:18 85° W 20:52:10 10° N
Cosmos 1741 Rocket 4.1 20:43:13 10° NNW 20:48:28 67° ENE 20:53:42 10° SSE
Cosmos 1844 Rocket 4.5 20:47:28 10° N 20:51:03 17° NE 20:54:37 10° E
Cosmos 1536 Rocket 3.5 20:46:57 10° N 20:51:17 68° E 20:55:35 10° SSE
Cosmos 2322 Rocket 2.3 20:47:05 10° SSW 20:52:46 88° WNW 20:58:30 10° NNE
Lacrosse 5 1.8 20:48:34 10° SW 20:53:38 75° SE 20:58:42 10° NE
Atlas Centaur 2 4.1 20:48:13 10° WSW 20:55:33 33° SSW 21:02:15 10° SE
ATLAS 2AS CENTAUR R/B 3.0 20:51:46 10° SSW 20:59:20 69° ESE 21:07:23 10° NE
Helios 1B rocket 3.7 21:02:26 10° NE 21:05:37 21° E 21:08:10 13° SE
SL-16 R/B 2.6 21:00:48 10° SSW 21:06:26 69° WNW 21:12:07 10° NNE
H-2A R/B 4.1 21:07:30 10° ENE 21:08:18 10° ENE 21:09:06 10° NE
Cosmos 2219 Rocket 3.9 21:08:26 12° E 21:08:26 12° E 21:10:25 10° ENE
NOSS 2-3 (E) 4.3 21:05:14 10° SW 21:09:54 69° NW 21:15:22 10° NNE
Meteor 1-11 Rocket 4.0 21:08:14 10° SSW 21:14:03 79° W 21:19:47 10° N
Cosmos 1110 Rocket 4.0 21:10:58 10° S 21:15:58 54° ESE 21:21:02 10° NNE
Cosmos 2322 3.8 21:14:27 10° S 21:19:53 50° ESE 21:25:22 10° NE
Delta 2 Rocket 4.0 21:16:46 10° WSW 21:20:22 35° S 21:22:33 21° ESE
Cosmos 1500 4.4 21:19:37 21° ESE 21:20:43 23° E 21:23:50 10° NE
SeaSat 1 2.5 21:17:10 10° NE 21:22:02 55° ESE 21:26:51 10° S
Cosmos 2360 Rocket 2.1 21:18:29 10° SSW 21:24:03 68° ESE 21:29:40 10° NNE
Abrixas rocket 3.7 21:22:35 10° NW 21:25:31 29° NNE 21:27:31 16° ENE
Meteor 1-23 Rocket 4.1 21:20:04 10° N 21:25:41 80° E 21:31:16 10° SSE
Cosmos 405 4.3 21:27:10 22° E 21:27:10 22° E 21:29:52 10° NE
Cosmos 1331 Rocket 4.0 21:21:58 10° S 21:27:03 60° ESE 21:32:13 10° NNE
Okean 2 3.8 21:23:18 10° N 21:27:13 43° ENE 21:29:21 23° SE
Cosmos 482 Debris 4.3 21:25:26 10° SW 21:29:55 43° SE 21:31:11 27° E
COSMOS 2428 3.3 21:27:55 10° SSE 21:33:02 35° ESE 21:38:11 10° NE
Cosmos 1975 3.9 21:33:35 24° E 21:33:43 24° E 21:36:58 10° NE
Cosmos 220 Rocket 4.3 21:34:22 10° NNW 21:38:39 65° WSW 21:42:04 16° S
CZ-4B DEB 3.0 21:42:43 40° ENE 21:42:43 40° ENE 21:45:21 10° N
Meteor 1-5 Rocket 4.4 21:40:28 10° SSW 21:45:45 69° W 21:51:03 10° N
NOAA 11 4.4 21:42:55 25° SE 21:45:59 55° ENE 21:51:21 10° N
Cosmos 2333 Rocket 3.5 21:47:12 20° E 21:47:12 20° E 21:50:12 10° NE
Cosmos 1025 Rocket 2.9 21:43:44 10° N 21:48:01 89° WSW 21:50:37 23° S
USA 186 4.4 21:47:51 10° SSW 21:50:29 21° W 21:53:08 10° NW
Cosmos 2333 4.4 21:46:03 10° S 21:51:24 46° ESE 21:56:46 10° NE
Okean 1 Rocket 3.9 21:48:51 10° SSW 21:53:05 52° W 21:57:23 10° N
NOSS 3-2 (A) 4.4 21:46:15 10° NNW 21:53:29 50° NE 21:57:47 27° ESE
Cosmos 1939 Rocket 3.7 21:51:35 13° S 21:54:52 46° W 21:58:40 10° NNW
USA 238 DEB 3.7 21:50:00 10° NW 21:57:08 83° NE 22:01:04 30° SE
USA 238 3.7 21:50:06 10° NNW 21:57:14 82° NE 22:01:09 30° SE
Cosmos 2237 Rocket 4.1 22:00:25 13° ENE 22:00:25 13° ENE 22:01:21 10° ENE
Tiangong 1 3.2 21:56:38 10° WSW 21:58:00 15° SW 21:58:00 15° SW
Cosmos 1244 Rocket 4.4 21:53:50 11° S 21:59:39 72° E 22:05:46 10° NNE
Cosmos 1437 Rocket 4.5 22:01:26 20° NE 22:01:26 20° NE 22:03:09 10° NE
Helios 1A 3.3 22:01:07 27° S 22:03:21 65° WSW 22:07:36 10° NNW
ATLAS 3B R/B 2.6 21:59:56 10° NW 22:06:40 76° WSW 22:09:58 31° SSE
Cosmos 1238 Rocket 3.9 22:00:35 10° N 22:07:16 71° E 22:10:05 34° SSE
SL-8 R/B 3.6 22:03:14 10° WNW 22:08:02 85° SSW 22:09:13 51° SE
Cosmos 1818 3.4 22:02:40 10° SSW 22:08:03 70° ESE 22:13:28 10° NE
ERS-1 Rocket 2.9 22:06:57 40° SSE 22:08:49 77° ENE 22:13:51 10° N
SPOT 1/Viking Rocket 4.3 22:08:48 33° E 22:09:34 35° ENE 22:14:17 10° N
YAOGAN 6 3.9 22:10:08 23° SSW 22:11:45 36° W 22:15:01 10° NNW
Cosmos 1066 Rocket 4.1 22:08:23 10° N 22:13:50 70° E 22:15:33 44° SSE
ARGOS 3.2 22:12:31 44° SE 22:14:01 63° ENE 22:19:19 10° N
Okean 1-7 Rocket 4.4 22:09:57 10° NNW 22:14:18 49° W 22:16:59 22° SSW
SL-08 RB Rocket 3.9 22:15:40 48° E 22:15:55 49° ENE 22:20:18 10° N
Molniya-1 4.0 22:13:01 10° NW 22:15:39 70° N 22:15:39 70° N
Resurs 01 Rocket 4.5 22:17:10 10° WSW 22:19:18 13° W 22:21:28 10° WNW
Meteor 1-29 3.5 22:16:59 10° N 22:20:20 56° WNW 22:20:46 51° WSW
BREEZE-M DEB (TANK) 4.0 22:19:28 10° WNW 22:20:55 16° NNW 22:20:55 16° NNW
BREEZE-M DEB (TANK) 4.2 22:22:04 10° W 22:25:50 53° N 22:39:00 10° ENE
YAOGAN 11 4.4 22:27:10 51° NE 22:27:10 51° NE 22:31:01 10° N
Cosmos 1743 4.0 22:29:25 31° NNE 22:29:25 31° NNE 22:31:36 10° NNE
Cosmos 2263 Rocket 4.4 22:24:58 10° NW 22:28:57 20° W 22:32:55 10° SW
Aureole 3 Rocket 4.1 22:21:11 10° N 22:29:14 86° W 22:31:40 40° S
USA 245 3.5 22:31:48 79° E 22:31:54 80° ENE 22:35:58 10° N
SPOT 5 2.7 22:31:51 70° E 22:32:02 71° ENE 22:36:38 10° N
NOSS 3-2 (C) 4.1 22:26:35 10° NNW 22:34:04 65° NE 22:36:46 43° ESE
Cosmos 1844 Rocket 2.6 22:29:58 10° NNW 22:35:41 84° WSW 22:36:49 59° S
Lacrosse 5 4.0 22:32:47 10° W 22:37:03 26° NNW 22:41:19 10° NNE
NOSS 0 Rocket 4.2 22:38:10 48° E 22:38:10 48° E 22:43:34 10° NE
Cosmos 2278 Rocket 2.8 22:32:26 10° N 22:37:48 41° ENE 22:38:10 40° ENE
MetOp-B 4.3 22:37:45 46° SSW 22:39:14 67° WSW 22:44:35 10° NNW
Helios 1B rocket 4.3 22:37:20 10° N 22:40:56 30° WNW 22:44:31 10° SW
Cosmos 1626 Rocket 4.4 22:36:52 10° N 22:39:56 39° NNE 22:39:56 39° NNE
Atlas Centaur 2 4.5 22:39:22 10° WSW 22:44:02 17° SSW 22:45:01 16° SSW
Cosmos 1892 Rocket 4.3 22:41:11 10° NNW 22:45:25 47° W 22:45:55 45° WSW
Meteor 1-21 4.2 22:41:11 10° N 22:46:47 63° ENE 22:46:52 63° E
H-2A R/B 1.8 22:46:54 83° E 22:46:56 83° ENE 22:51:55 10° NNW
Landsat 7 4.3 22:48:56 48° NE 22:48:56 48° NE 22:52:50 10° N
Cosmos 2219 Rocket 2.1 22:50:02 54° SSW 22:51:23 87° WNW 22:57:05 10° NNE
Cosmos 1745 Rocket 3.9 22:50:53 51° SSW 22:52:34 84° W 22:58:46 10° N
CENTAUR R/B 3.8 22:46:41 10° NNW 22:53:59 41° NE 22:56:35 33° E
Timation 1 Rocket 4.3 22:54:30 10° NNW 23:00:29 68° ENE 23:00:35 68° ENE
NOSS 3-4 (A) 3.4 22:56:26 20° SW 23:00:58 88° WNW 23:07:29 10° NE
NOSS 3-4 (C) 3.4 22:57:10 25° SW 23:01:05 88° NW 23:07:35 10° NE
Terra 2.7 23:04:46 42° NNE 23:04:46 42° NNE 23:08:11 10° N
SL-16 R/B 4.3 23:11:39 14° NE 23:11:39 14° NE 23:12:37 10° NE
Cosmos 1455 Rocket 4.4 23:09:49 35° W 23:10:14 35° WNW 23:14:21 10° N
COSMOS 2428 4.2 23:12:03 10° WSW 23:17:16 35° WNW 23:22:29 10° N
GP-B 4.4 23:13:37 10° N 23:16:18 36° N 23:16:18 36° N
Cosmos 1844 4.4 23:15:17 10° NW 23:20:42 46° WSW 23:20:43 46° WSW
Cosmos 2333 Rocket 2.8 23:29:06 50° W 23:29:51 53° WNW 23:35:23 10° NNE
Cosmos 2237 Rocket 2.8 23:42:11 54° NNW 23:42:11 54° NNW 23:46:48 10° NNE
Cosmos 1980 4.4 23:48:45 51° NW 23:48:45 51° NW 23:53:56 10° NNE
H-2A R/B 4.2 23:57:37 25° NNW 23:57:37 25° NNW 23:59:29 10° NNW
